User: anonymous   Login
Location: Unspecified
(0.0000°N, 0.0000°E)
Time: 18:54:12
(UTC+00:00)
Language:

CUBEBUG 2 - Orbit

View from above orbital plane
View from above orbital plane
View from above satellite
View from above satellite

Ground track
Ground track

The orbit data is extracted from the following two-line orbital elements,

1 39440U 13066AA  17145.66163714 +.00000270 +00000-0 +44854-4 0  9996
2 39440 097.6305 178.3482 0081124 014.6307 345.7224 14.75436813187579
Epoch (UTC): 25 May 2017 15:52:45
Eccentricity: 0.0081124
inclination: 97.6305°
perigee height: 587 km
apogee height: 701 km
right ascension of ascending node: 178.3482°
argument of perigee: 14.6307°
revolutions per day: 14.75436813
mean anomaly at epoch: 345.7224°
orbit number at epoch: 18757

The dashed part of the orbit path shows where the satellite is in the earth's shadow,  

DLR